EW7736 Weather Reports


Display with metric or nautical units.
time (UTC)temp
F
wind
direction
speed
MPH
gust
MPH
rain 1hr
in
rain 24hr
in
rain mn
in
humidity
%
barometer
mb
20260903034848 81 36 2.0 7.0 0.00 0.00 0.00 75 1015.8
20260903033905 81 43 2.0 7.0 0.00 0.00 0.00 75 1015.8
20260903032836 81 41 2.0 8.0 0.00 0.00 0.00 75 1015.9
20260903031840 81 37 3.0 8.0 0.00 0.00 0.00 75 1015.9
20260903030812 81 49 2.0 6.0 0.00 0.00 0.00 75 1016.1
20260903025824 82 38 3.0 6.0 0.00 0.00 0.00 75 1016.2
20260903024813 82 49 3.0 5.0 0.00 0.00 0.00 75 1016.2
20260903023825 81 44 3.0 6.0 0.00 0.00 0.00 75 1016.2
20260903022845 82 44 3.0 6.0 0.00 0.00 0.00 75 1016.2
20260903021818 82 47 1.0 4.0 0.00 0.00 0.00 75 1016.3
20260903020807 82 53 1.0 4.0 0.00 0.00 0.00 75 1016.5
20260903015808 82 50 1.0 5.0 0.00 0.00 0.00 75 1016.5
20260903014748 82 48 2.0 5.0 0.00 0.00 0.00 75 1016.5
20260903013724 82 46 2.0 6.0 0.00 0.00 0.00 74 1016.4
20260903012732 83 46 3.0 6.0 0.00 0.00 0.00 74 1016.4
20260903011736 83 48 3.0 6.0 0.00 0.00 0.00 74 1016.3
20260903010749 82 43 2.0 6.0 0.00 0.00 0.00 75 1016.2
20260903005744 83 51 2.0 5.0 0.00 0.00 0.00 74 1016.2
20260903004717 83 60 1.0 4.0 0.00 0.00 0.00 74 1016.3
20260903002529 83 52 0.0 2.0 0.00 0.00 0.00 73 1016.1
20260903001507 84 50 1.0 4.0 0.00 0.00 0.00 72 1016.0
20260903000511 84 46 1.0 4.0 0.00 0.00 0.00 71 1016.0
20260902235443 85 52 1.0 4.0 0.00 0.00 0.00 71 1016.0
20260902234435 85 46 1.0 4.0 0.00 0.00 0.00 70 1015.9
20260902233444 86 58 1.0 3.0 0.00 0.00 0.00 70 1015.9
20260902232503 86 54 1.0 4.0 0.00 0.00 0.00 69 1015.8
20260902231457 86 58 0.0 5.0 0.00 0.00 0.00 68 1015.9
20260902230522 87 51 1.0 5.0 0.00 0.00 0.00 67 1015.8
20260902225453 87 56 1.0 4.0 0.00 0.00 0.00 67 1015.8
20260902224506 88 51 1.0 4.0 0.00 0.00 0.00 66 1015.8
20260902223435 88 47 1.0 3.0 0.00 0.00 0.00 66 1015.9
20260902222413 88 49 0.0 4.0 0.00 0.00 0.00 66 1015.8
20260902221344 88 44 1.0 4.0 0.00 0.00 0.00 64 1016.0
20260902220315 89 53 1.0 4.0 0.00 0.00 0.00 64 1016.0
20260902215312 89 97 1.0 4.0 0.00 0.00 0.00 64 1016.2
20260902214328 89 35 1.0 5.0 0.00 0.00 0.00 65 1016.2
20260902213255 89 43 1.0 5.0 0.00 0.00 0.00 63 1016.2
20260902212306 89 88 1.0 2.0 0.00 0.00 0.00 63 1016.1
20260902211249 89 67 2.0 5.0 0.00 0.00 0.00 62 1016.1
20260902210241 89 60 1.0 5.0 0.00 0.00 0.00 64 1016.1
20260902205220 89 98 1.0 6.0 0.00 0.00 0.00 62 1016.1
20260902204239 89 89 2.0 7.0 0.00 0.00 0.00 63 1016.2
20260902203302 89 97 2.0 8.0 0.00 0.00 0.00 62 1016.2
20260902202308 90 38 1.0 8.0 0.00 0.00 0.00 62 1016.3
20260902201242 90 105 3.0 7.0 0.00 0.00 0.00 61 1016.3
20260902200230 89 37 2.0 6.0 0.00 0.00 0.00 62 1016.4
20260902195222 90 43 2.0 7.0 0.00 0.00 0.00 61 1016.5
20260902194235 89 97 2.0 7.0 0.00 0.00 0.00 62 1016.6
20260902193257 89 105 3.0 7.0 0.00 0.00 0.00 62 1016.7
20260902191202 90 87 1.0 6.0 0.00 0.00 0.00 64 1017.0
20260902190213 89 40 2.0 6.0 0.00 0.00 0.00 63 1017.1
20260902185148 89 103 1.0 5.0 0.00 0.00 0.00 63 1017.0
20260902184208 89 100 2.0 5.0 0.00 0.00 0.00 64 1017.1
20260902182101 90 46 2.0 8.0 0.00 0.00 0.00 63 1017.3
20260902181038 90 53 1.0 5.0 0.00 0.00 0.00 64 1017.3
20260902180046 88 53 0.0 5.0 0.00 0.00 0.00 66 1017.5
20260902175012 88 117 2.0 8.0 0.00 0.00 0.00 65 1017.7
20260902173940 89 101 2.0 8.0 0.00 0.00 0.00 64 1017.8
20260902172917 88 42 1.0 8.0 0.00 0.00 0.00 67 1017.7
20260902171940 89 96 2.0 8.0 0.00 0.00 0.00 65 1017.9
20260902171002 88 117 2.0 6.0 0.00 0.00 0.00 68 1018.0
20260902164845 88 100 1.0 4.0 0.00 0.00 0.00 67 1018.1
20260902163853 88 96 1.0 6.0 0.00 0.00 0.00 69 1018.2
20260902162907 88 102 1.0 6.0 0.00 0.00 0.00 68 1018.2
20260902161901 87 104 1.0 5.0 0.00 0.00 0.00 69 1018.4
20260902160827 87 111 1.0 3.0 0.00 0.00 0.00 69 1018.4
20260902154732 86 100 0.0 4.0 0.00 0.00 0.00 70 1018.4
20260902153751 86 110 1.0 6.0 0.00 0.00 0.00 71 1018.6
20260902152719 85 58 0.0 6.0 0.00 0.00 0.00 72 1018.7
20260902145425 83 27 1.0 5.0 0.00 0.00 0.00 73 1018.6
20260902144415 82 86 1.0 5.0 0.00 0.00 0.00 74 1018.5
20260902143439 82 101 1.0 5.0 0.00 0.00 0.00 74 1018.5
20260902142411 82 103 1.0 5.0 0.00 0.00 0.00 74 1018.5
20260902141430 81 97 1.0 5.0 0.00 0.00 0.00 75 1018.4
20260902135358 80 53 1.0 4.0 0.00 0.00 0.00 75 1018.0
20260902134359 80 91 2.0 8.0 0.00 0.00 0.00 75 1018.1
20260902133336 79 69 1.0 8.0 0.00 0.00 0.00 74 1018.1
20260902131253 78 57 1.0 5.0 0.00 0.00 0.00 73 1018.1
20260902130316 78 51 1.0 5.0 0.00 0.00 0.00 72 1018.2
20260902124139 77 48 2.0 7.0 0.00 0.00 0.00 69 1018.4
20260902123145 76 59 1.0 5.0 0.00 0.00 0.00 64 1018.3
20260902121024 74 49 0.0 4.0 0.00 0.00 0.00 49 1018.1
20260902120006 74 53 0.0 5.0 0.00 0.00 0.00 44 1017.9
20260902114954 74 45 0.0 5.0 0.00 0.00 0.00 38 1017.9
20260902113922 73 50 0.0 0.0 0.00 0.00 0.00 35 1017.9
20260902112941 73 50 0.0 0.0 0.00 0.00 0.00 33 1017.9
20260902110844 73 49 0.0 0.0 0.00 0.00 0.00 31 1017.6
20260902105900 73 49 0.0 0.0 0.00 0.00 0.00 32 1017.6
20260902104909 73 49 0.0 1.0 0.00 0.00 0.00 34 1017.6
20260902103917 73 49 0.0 1.0 0.00 0.00 0.00 35 1017.6
20260902102924 73 50 0.0 2.0 0.00 0.00 0.00 36 1017.6
20260902101945 73 54 0.0 1.0 0.00 0.00 0.00 37 1017.6
20260902100932 73 53 0.0 2.0 0.00 0.00 0.00 41 1017.6
20260902094723 74 55 0.0 1.0 0.00 0.00 0.00 44 1017.9
20260902093732 74 55 0.0 0.0 0.00 0.00 0.00 45 1017.8
20260902092732 74 55 0.0 3.0 0.00 0.00 0.00 42 1017.9
20260902091708 73 53 0.0 3.0 0.00 0.00 0.00 38 1017.9
20260902090712 73 48 0.0 0.0 0.00 0.00 0.00 33 1017.9
20260902085731 73 48 0.0 0.0 0.00 0.00 0.00 31 1017.8
20260902084742 73 48 0.0 0.0 0.00 0.00 0.00 31 1017.8
20260902083709 73 48 1.0 3.0 0.00 0.00 0.00 29 1017.7
20260902082726 73 47 1.0 3.0 0.00 0.00 0.00 27 1017.7
20260902081729 72 62 2.0 3.0 0.00 0.00 0.00 27 1017.6
20260902080735 72 53 0.0 3.0 0.00 0.00 0.00 31 1017.6
20260902075753 73 58 0.0 2.0 0.00 0.00 0.00 33 1017.6
20260902074723 73 57 0.0 0.0 0.00 0.00 0.00 37 1017.6
20260902073651 73 57 0.0 3.0 0.00 0.00 0.00 40 1017.6
20260902072716 73 49 0.0 0.0 0.00 0.00 0.00 39 1017.7
20260902071705 73 47 0.0 0.0 0.00 0.00 0.00 40 1017.6
20260902070655 73 53 0.0 0.0 0.00 0.00 0.00 41 1017.7
20260902064605 73 53 0.0 0.0 0.00 0.00 0.00 48 1017.6
20260902062415 73 53 0.0 0.0 0.00 0.00 0.00 52 1017.7
20260902061404 73 53 0.0 0.0 0.00 0.00 0.00 52 1017.6
20260902060349 73 53 0.0 0.0 0.00 0.00 0.00 52 1017.7
20260902055333 73 53 0.0 0.0 0.00 0.00 0.00 53 1017.6
20260902054314 73 53 0.0 0.0 0.00 0.00 0.00 56 1017.5
20260902053320 73 53 0.0 0.0 0.00 0.00 0.00 58 1017.6
20260902052256 73 53 0.0 0.0 0.00 0.00 0.00 60 1017.6
20260902051312 73 53 0.0 0.0 0.00 0.00 0.00 61 1017.5
20260902050334 74 53 0.0 0.0 0.00 0.00 0.00 63 1017.5
20260902045327 74 53 0.0 0.0 0.00 0.00 0.00 64 1017.5
20260902044342 74 53 0.0 0.0 0.00 0.00 0.00 64 1017.5
20260902043348 74 53 0.0 0.0 0.00 0.00 0.00 64 1017.4
20260902042316 74 53 0.0 0.0 0.00 0.00 0.00 65 1017.3
20260902041333 74 53 0.0 0.0 0.00 0.00 0.00 66 1017.1
20260902040310 74 53 0.0 0.0 0.00 0.00 0.00 67 1017.0